Location: Carthage
(33.8834°N, 106.6595°W)
Time: 11:01:08
(UTC+00:00)

Cosmos 372 Rocket - Pass Details

Date: 13 February 2026
Orbit: 732 x 763 km, 74.1° (Epoch: 11 March)

Event Time Altitude Azimuth Distance (km) Brightness Sun altitude
Rises 12:59:37 0° 194° (SSW) 3,141 7.1 -11.7°
Reaches altitude 10° 13:01:57 10° 194° (SSW) 2,224 6.3 -11.2°
Maximum altitude 13:06:59 87° 108° (ESE) 741 4.0 -10.2°
Drops below altitude 10° 13:12:05 10° 18° (NNE) 2,250 6.5 -9.1°
Sets 13:14:27 0° 18° (NNE) 3,181 7.3 -8.6°
